| time (UTC) | temp C | wind direction | speed KPH | gust KPH | rain 1hr cm | rain 24hr cm | rain mn cm | humidity % | barometer mb |
| 20260904010138 | 23 | 135 | 0.0 | 0.0 | 0.00 | 0.58 | 0.00 | 83 | 1012.3 |
| 20260904004636 | 23 | 135 | 0.0 | 0.0 | 0.00 | 0.58 | 0.00 | 81 | 1012.3 |
| 20260904003136 | 23 | 135 | 0.0 | 0.0 | 0.00 | 0.58 | 0.00 | 79 | 1012.3 |
| 20260904001650 | 23 | 135 | 0.0 | 0.0 | 0.00 | 0.58 | 0.00 | 77 | 1012.0 |
| 20260904000130 | 24 | 135 | 0.0 | 0.0 | 0.00 | 0.58 | 0.00 | 76 | 1012.0 |
| 20260903234646 | 24 | 135 | 0.0 | 0.0 | 0.00 | 0.58 | 0.00 | 75 | 1012.0 |
| 20260903233126 | 25 | 135 | 0.0 | 0.0 | 0.00 | 0.58 | 0.00 | 73 | 1012.1 |
| 20260903231622 | 25 | 136 | 0.0 | 0.0 | 0.00 | 0.58 | 0.00 | 74 | 1011.9 |
| 20260903230137 | 25 | 176 | 0.0 | 0.0 | 0.00 | 0.58 | 0.00 | 74 | 1011.4 |
| 20260903224636 | 26 | 176 | 0.0 | 0.0 | 0.00 | 0.58 | 0.00 | 72 | 1011.4 |
| 20260903223135 | 26 | 176 | 0.0 | 0.0 | 0.00 | 0.58 | 0.00 | 70 | 1011.1 |
| 20260903221653 | 27 | 127 | 0.0 | 1.6 | 0.00 | 0.58 | 0.00 | 67 | 1011.3 |
| 20260903220127 | 27 | 100 | 0.0 | 1.6 | 0.00 | 0.58 | 0.00 | 67 | 1011.1 |
| 20260903214643 | 27 | 100 | 0.0 | 3.2 | 0.00 | 0.58 | 0.00 | 65 | 1011.4 |
| 20260903213121 | 27 | 111 | 0.0 | 3.2 | 0.00 | 0.58 | 0.00 | 64 | 1011.4 |
| 20260903211622 | 28 | 112 | 0.0 | 1.6 | 0.00 | 0.58 | 0.00 | 62 | 1011.3 |
| 20260903210134 | 28 | 124 | 1.6 | 4.8 | 0.00 | 0.58 | 0.00 | 63 | 1011.5 |
| 20260903204634 | 28 | 143 | 1.6 | 6.4 | 0.00 | 0.58 | 0.00 | 63 | 1011.6 |
| 20260903203127 | 27 | 97 | 0.0 | 6.4 | 0.00 | 0.58 | 0.00 | 62 | 1011.7 |
| 20260903201621 | 28 | 116 | 3.2 | 6.4 | 0.00 | 0.58 | 0.00 | 62 | 1011.6 |
| 20260903200134 | 28 | 100 | 1.6 | 6.4 | 0.00 | 0.58 | 0.00 | 63 | 1011.7 |
| 20260903194625 | 28 | 68 | 0.0 | 6.4 | 0.00 | 0.58 | 0.00 | 63 | 1011.7 |
| 20260903193133 | 28 | 70 | 1.6 | 8.0 | 0.00 | 0.58 | 0.00 | 62 | 1012.0 |
| 20260903191630 | 28 | 51 | 1.6 | 6.4 | 0.00 | 0.58 | 0.00 | 63 | 1012.3 |
| 20260903190123 | 27 | 72 | 1.6 | 8.0 | 0.00 | 0.58 | 0.00 | 62 | 1012.2 |
| 20260903184658 | 27 | 96 | 3.2 | 11.3 | 0.00 | 0.58 | 0.00 | 61 | 1012.2 |
| 20260903183134 | 27 | 95 | 1.6 | 12.9 | 0.00 | 0.58 | 0.00 | 64 | 1012.3 |
| 20260903181707 | 27 | 130 | 1.6 | 8.0 | 0.00 | 0.58 | 0.00 | 62 | 1012.5 |
| 20260903180132 | 27 | 86 | 3.2 | 8.0 | 0.00 | 0.58 | 0.00 | 66 | 1012.4 |
| 20260903174630 | 27 | 96 | 3.2 | 6.4 | 0.00 | 0.58 | 0.00 | 65 | 1012.5 |
| 20260903173123 | 27 | 82 | 1.6 | 12.9 | 0.00 | 0.58 | 0.00 | 71 | 1012.5 |
| 20260903171632 | 26 | 349 | 1.6 | 4.8 | 0.00 | 0.58 | 0.00 | 73 | 1012.6 |
| 20260903170134 | 26 | 109 | 0.0 | 1.6 | 0.00 | 0.58 | 0.00 | 73 | 1012.7 |
| 20260903164630 | 26 | 92 | 0.0 | 8.0 | 0.00 | 0.61 | 0.00 | 74 | 1012.7 |
| 20260903163140 | 25 | 128 | 1.6 | 6.4 | 0.00 | 0.61 | 0.00 | 77 | 1012.9 |
| 20260903161634 | 25 | 73 | 4.8 | 9.7 | 0.00 | 0.61 | 0.00 | 79 | 1012.8 |
| 20260903160127 | 25 | 116 | 3.2 | 8.0 | 0.00 | 0.61 | 0.00 | 79 | 1012.9 |
| 20260903154639 | 24 | 82 | 1.6 | 6.4 | 0.00 | 1.52 | 0.00 | 83 | 1013.0 |
| 20260903153223 | 25 | 108 | 1.6 | 8.0 | 0.00 | 1.52 | 0.00 | 83 | 1013.0 |
| 20260903151626 | 23 | 85 | 1.6 | 6.4 | 0.00 | 1.52 | 0.00 | 87 | 1013.3 |
| 20260903150140 | 23 | 79 | 1.6 | 4.8 | 0.00 | 1.52 | 0.00 | 89 | 1013.5 |
| 20260903144640 | 22 | 60 | 0.0 | 4.8 | 0.00 | 3.33 | 0.00 | 90 | 1013.3 |
| 20260903143128 | 22 | 50 | 1.6 | 4.8 | 0.00 | 3.33 | 0.00 | 91 | 1013.2 |
| 20260903141623 | 22 | 101 | 0.0 | 8.0 | 0.00 | 3.33 | 0.00 | 91 | 1013.2 |
| 20260903140139 | 22 | 97 | 1.6 | 3.2 | 0.00 | 3.33 | 0.00 | 92 | 1013.0 |
| 20260903134623 | 22 | 68 | 1.6 | 6.4 | 0.00 | 3.40 | 0.00 | 91 | 1013.0 |
| 20260903133126 | 22 | 77 | 1.6 | 14.5 | 0.00 | 3.40 | 0.00 | 90 | 1013.0 |
| 20260903131703 | 22 | 62 | 1.6 | 6.4 | 0.00 | 3.40 | 0.00 | 89 | 1013.0 |
| 20260903130138 | 22 | 94 | 1.6 | 8.0 | 0.00 | 3.40 | 0.00 | 90 | 1013.0 |
| 20260903124635 | 22 | 97 | 0.0 | 4.8 | 0.00 | 3.40 | 0.00 | 90 | 1013.2 |
| 20260903123126 | 21 | 54 | 0.0 | 3.2 | 0.00 | 3.40 | 0.00 | 91 | 1013.0 |
| 20260903121636 | 21 | 65 | 0.0 | 1.6 | 0.00 | 3.40 | 0.00 | 92 | 1012.8 |
| 20260903120130 | 21 | 81 | 0.0 | 0.0 | 0.00 | 3.40 | 0.00 | 93 | 1012.8 |
| 20260903114647 | 21 | 59 | 0.0 | 0.0 | 0.00 | 3.40 | 0.00 | 93 | 1012.7 |
| 20260903113144 | 21 | 58 | 0.0 | 3.2 | 0.00 | 3.40 | 0.00 | 93 | 1012.5 |
| 20260903111631 | 20 | 66 | 0.0 | 1.6 | 0.00 | 3.40 | 0.00 | 94 | 1012.4 |
| 20260903110126 | 20 | 63 | 0.0 | 0.0 | 0.00 | 3.40 | 0.00 | 95 | 1012.4 |
| 20260903104645 | 20 | 75 | 0.0 | 0.0 | 0.00 | 3.40 | 0.00 | 95 | 1012.3 |
| 20260903103139 | 20 | 75 | 0.0 | 0.0 | 0.00 | 3.40 | 0.00 | 95 | 1012.2 |
| 20260903101635 | 20 | 75 | 0.0 | 0.0 | 0.00 | 3.40 | 0.00 | 96 | 1012.0 |
| 20260903100131 | 20 | 56 | 0.0 | 0.0 | 0.00 | 3.40 | 0.00 | 96 | 1012.1 |
| 20260903094627 | 20 | 78 | 0.0 | 1.6 | 0.00 | 3.40 | 0.00 | 97 | 1012.2 |
| 20260903093123 | 20 | 81 | 0.0 | 0.0 | 0.00 | 3.40 | 0.00 | 97 | 1012.1 |
| 20260903091700 | 20 | 80 | 0.0 | 1.6 | 0.00 | 3.40 | 0.00 | 97 | 1012.3 |
| 20260903090135 | 20 | 81 | 0.0 | 1.6 | 0.00 | 3.40 | 0.00 | 97 | 1012.2 |
| 20260903084637 | 20 | 81 | 0.0 | 6.4 | 0.00 | 3.40 | 0.00 | 98 | 1012.1 |
| 20260903083134 | 20 | 110 | 0.0 | 0.0 | 0.00 | 3.40 | 0.00 | 98 | 1012.2 |
| 20260903081632 | 20 | 110 | 0.0 | 0.0 | 0.00 | 3.40 | 0.00 | 97 | 1012.2 |
| 20260903080129 | 20 | 83 | 0.0 | 0.0 | 0.00 | 3.40 | 0.00 | 97 | 1012.3 |
| 20260903074627 | 20 | 33 | 0.0 | 4.8 | 0.00 | 3.40 | 0.00 | 98 | 1012.1 |
| 20260903073123 | 20 | 65 | 0.0 | 1.6 | 0.00 | 3.40 | 0.00 | 98 | 1012.5 |
| 20260903071640 | 19 | 69 | 0.0 | 1.6 | 0.00 | 3.40 | 0.00 | 98 | 1012.5 |
| 20260903070123 | 19 | 115 | 0.0 | 0.0 | 0.00 | 3.40 | 0.00 | 98 | 1012.7 |
| 20260903064635 | 19 | 115 | 0.0 | 0.0 | 0.00 | 3.40 | 0.00 | 98 | 1012.6 |
| 20260903063129 | 19 | 115 | 0.0 | 0.0 | 0.00 | 3.40 | 0.00 | 98 | 1012.3 |
| 20260903061624 | 19 | 115 | 0.0 | 0.0 | 0.00 | 3.40 | 0.00 | 98 | 1012.4 |
| 20260903060121 | 19 | 115 | 0.0 | 0.0 | 0.00 | 3.40 | 0.00 | 97 | 1012.4 |
| 20260903054659 | 19 | 116 | 0.0 | 0.0 | 0.00 | 3.40 | 0.00 | 97 | 1012.6 |
| 20260903053158 | 19 | 116 | 0.0 | 0.0 | 0.00 | 3.40 | 0.00 | 97 | 1012.3 |
| 20260903051636 | 19 | 116 | 0.0 | 0.0 | 0.00 | 3.40 | 0.00 | 97 | 1012.5 |
| 20260903050140 | 19 | 116 | 0.0 | 3.2 | 0.00 | 3.40 | 0.00 | 97 | 1012.4 |
| 20260903044637 | 19 | 113 | 0.0 | 0.0 | 0.00 | 3.40 | 0.00 | 97 | 1012.1 |
| 20260903043124 | 19 | 93 | 0.0 | 0.0 | 0.00 | 3.40 | 0.00 | 97 | 1012.1 |
| 20260903041643 | 19 | 355 | 0.0 | 0.0 | 0.00 | 3.40 | 0.00 | 97 | 1012.4 |
| 20260903040131 | 19 | 355 | 0.0 | 1.6 | 0.00 | 3.40 | 0.00 | 96 | 1012.9 |
| 20260903034621 | 19 | 34 | 1.6 | 4.8 | 0.00 | 3.40 | 3.40 | 96 | 1013.0 |
| 20260903033142 | 19 | 68 | 1.6 | 6.4 | 0.00 | 3.40 | 3.40 | 96 | 1013.0 |
| 20260903031635 | 19 | 57 | 1.6 | 16.1 | 0.03 | 3.40 | 3.40 | 96 | 1011.4 |
| 20260903030132 | 19 | 311 | 4.8 | 9.7 | 0.08 | 3.40 | 3.40 | 96 | 1011.0 |
| 20260903024629 | 20 | 46 | 3.2 | 9.7 | 0.13 | 3.40 | 3.40 | 95 | 1011.6 |
| 20260903023127 | 20 | 32 | 3.2 | 11.3 | 0.18 | 3.40 | 3.40 | 95 | 1012.2 |
| 20260903021624 | 21 | 58 | 4.8 | 9.7 | 0.23 | 3.38 | 3.38 | 95 | 1012.6 |
| 20260903020158 | 21 | 17 | 3.2 | 6.4 | 0.51 | 3.33 | 3.33 | 95 | 1012.1 |
| 20260903014633 | 21 | 59 | 3.2 | 8.0 | 0.46 | 3.28 | 3.28 | 95 | 1013.3 |
| 20260903013130 | 22 | 354 | 3.2 | 9.7 | 0.41 | 3.23 | 3.23 | 94 | 1012.6 |
| 20260903011629 | 22 | 349 | 1.6 | 6.4 | 0.33 | 3.15 | 3.15 | 93 | 1013.5 |